[[{"header":{"parameterUnit":"m.s-1","parameterCategory":1,"la1":30.2991,"la2":30.254,"lo1":-89.0895,"lo2":-89.0444,"dy":0.0017,"dx":0.0017,"nx":28,"ny":28,"refTime":"2025-05-19T21:00:00:Z","depth":0,"parameterNumber":2,"parameterNumberName":"U-component_of_WINDS"},"data":[0,0,0,0,0,0,0,0,0,0,0,0,0,0,0,0,0,0,0,0,0,0,0,0,0,0,0,0,0,0,0,0,0,0,0,0,0,0,0,0,0,0,0,0,0,0,0,0,0,0,0,0,0,0,0,0,0,0,3.9517,3.9519,0,3.9672,3.9673,3.9675,3.9641,3.9638,3.9635,3.9632,3.9793,3.98,3.9807,0,0,0,0,0,0,0,0,0,0,0,0,0,3.9194,3.92,3.9517,3.9519,3.9521,3.9671,3.9673,3.9675,3.9641,3.9638,3.9634,3.9631,3.9791,3.9799,3.9808,0,0,0,0,0,0,0,0,0,0,0,0,0,3.934,3.9202,3.9517,3.9522,3.9524,3.9671,3.9673,3.9676,3.9642,3.9638,3.9633,3.9629,3.9788,3.9798,3.9809,3.9961,0,0,3.9841,3.9845,0,0,0,0,0,0,0,0,3.9332,3.9352,3.9519,3.9522,3.9524,3.9632,3.9619,3.9772,3.9643,3.9597,3.9632,3.9627,3.9743,3.9757,3.9796,3.9969,3.9976,3.9842,3.9848,3.9853,3.9856,0,0,0,0,0,0,0,3.9322,3.9345,3.9578,3.9522,3.9525,3.9517,3.9533,3.9647,3.9693,3.9601,3.9599,3.9617,3.9744,3.9786,3.98,3.9978,3.9842,3.9851,3.9857,3.9861,4.0281,4.0286,0,0,0,0,0,0,3.9309,3.9337,3.9573,3.9583,3.9415,3.9526,3.9544,3.9602,3.9692,3.9701,3.9621,3.9615,3.977,3.9787,3.9805,3.9988,3.9853,3.9862,3.9869,4.0277,4.0282,4.0288,0,0,0,0,0,0,3.9302,3.9331,3.9567,3.9459,3.9489,3.9537,3.9602,3.9607,3.9649,3.9707,3.9715,3.9655,3.9767,3.979,3.9922,3.9993,3.9867,3.9877,4.0271,4.0278,4.0285,4.0355,0,0,0,0,0,0,3.9293,3.9328,3.9387,3.9461,3.9495,3.9681,3.9606,3.9614,3.9667,3.9661,3.9741,3.975,3.9766,3.9906,3.9932,4.0005,3.9885,4.0265,4.0274,4.0283,4.0346,4.0364,4.0378,0,0,0,0,0,3.9282,3.9401,3.939,3.9418,3.9568,3.9685,3.9705,3.9719,3.9673,3.9732,3.9768,3.9748,3.9981,3.992,3.9949,4.0026,4.026,4.0271,4.0282,4.0339,4.036,4.0378,0,0,0,0,0,0,3.9335,3.9411,3.9399,3.9546,3.9609,3.9679,3.9754,3.9741,3.982,3.9811,3.9826,3.9845,3.9978,4.0016,3.9946,4.0177,4.0114,4.0131,4.0148,4.0168,4.0184,4.0172,3.9894,0,0,0,0,0,3.9364,3.9452,3.9514,3.9637,3.9669,3.9706,3.9758,3.9763,3.983,3.9857,3.9903,3.9969,4.0057,4.0115,4.0199,4.0352,4.0368,4.0419,4.0435,4.0448,4.0462,4.0544,4.0567,4.0323,4.0323,4.0323,0,0,3.9424,3.9477,3.9531,3.9649,3.9699,3.979,3.9729,3.9828,3.9896,3.9872,3.9998,4.0035,4.011,4.0252,4.0317,4.0287,4.0533,4.0462,4.0471,4.0479,4.0557,4.058,4.0601,4.0331,4.033,4.0328,0,0,3.958,3.9629,3.9736,3.9787,3.9862,3.9886,3.9912,3.9984,4.0006,4.0133,4.0117,4.0198,4.0349,4.0403,4.045,4.0624,4.0608,4.0652,4.0735,4.0814,4.0833,4.085,4.0911,4.0933,4.0666,4.0666,4.0666,0,3.9646,3.9781,3.9794,3.9894,3.9945,3.9927,4.0035,4.0084,4.0184,4.022,4.0185,4.0374,4.0423,4.0576,4.0619,4.0658,4.0687,4.0642,4.0829,4.0847,4.0863,4.0921,4.0944,4.0671,4.067,4.067,4.0669,0,3.9858,3.9952,4.003,4.0124,4.0185,4.0289,4.0317,4.0377,4.0377,4.0404,4.0533,4.0591,4.0686,4.0723,4.0725,4.0877,4.0856,4.0825,4.0762,4.089,4.0945,4.0967,4.0678,4.0676,4.0675,4.0673,0,0,4.0052,4.0151,4.0179,4.0221,4.0302,4.0375,4.0478,4.057,4.062,4.069,4.0776,4.0904,4.0875,4.0928,4.0936,4.1006,4.1138,4.0967,4.0969,4.0995,4.1307,4.1328,4.1354,4.1128,4.1133,4.1136,4.13,0,4.0214,4.0394,4.0407,4.057,4.0656,4.0639,4.0728,4.0788,4.0816,4.0894,4.0925,4.1015,4.0971,4.1003,4.1072,4.1108,4.1201,4.1096,4.1208,4.1212,4.1188,4.1383,4.1406,4.1559,4.1322,4.1326,4.1328,0,4.0427,4.05,4.0671,4.0738,4.0775,4.0855,4.0939,4.1014,4.1081,4.1096,4.1155,4.1152,4.1258,4.1191,4.1337,4.1265,4.1312,4.1336,4.1342,4.1352,4.1277,4.1397,4.1608,4.163,4.1363,4.136,4.1357,0,4.0549,4.0691,4.0811,4.0848,4.093,4.0986,4.1023,4.1086,4.1139,4.1213,4.1247,4.1333,4.138,4.1447,4.1467,4.1417,4.1611,4.1547,4.1626,4.1626,4.1667,4.1664,4.1887,4.17,4.17,4.1699,4.1699,0,4.0728,4.0832,4.0866,4.094,4.1057,4.1071,4.1186,4.122,4.1276,4.1355,4.1347,4.1422,4.1446,4.1525,4.1543,4.1659,4.1681,4.1696,4.1699,4.1696,4.1694,4.1726,4.1715,4.1705,4.1704,4.1703,4.1702,0,4.0883,4.0911,4.104,4.1106,4.1125,4.1208,4.1265,4.1336,4.1362,4.1463,4.1488,4.1529,4.1622,4.1649,4.1762,4.1773,4.1909,4.1904,4.1886,4.1886,4.1963,4.1955,4.2213,4.2247,4.2039,4.2041,4.2043,0,4.0995,4.1075,4.1149,4.1201,4.124,4.1325,4.1378,4.1396,4.1452,4.1534,4.1595,4.1686,4.176,4.1909,4.1949,4.2035,4.203,4.2115,4.2043,4.2037,4.2029,4.2024,4.2031,4.2128,4.213,4.2132,4.2134,0,4.1189,4.1198,4.1276,4.1358,4.1422,4.1488,4.1551,4.1595,4.1621,4.1685,4.1779,4.1836,4.195,4.204,4.2126,4.2165,4.2154,4.2156,4.2178,4.2175,4.2161,4.2168,4.1921,4.215,4.2148,4.2147,4.2146,4.2145,4.1325,4.1394,4.1457,4.1543,4.1592,4.1651,4.172,4.1754,4.1832,4.1925,4.1931,4.2032,4.2096,4.2211,4.2254,4.2333,4.2309,4.2342,4.235,4.2357,4.2363,4.2149,4.235,4.2349,4.2349,4.2348,4.2348,0,4.1517,4.1556,4.1635,4.1723,4.1791,4.1773,4.1842,4.19,4.1989,4.2049,4.2121,4.2228,4.2316,4.2363,4.2449,4.2504,4.2501,4.2526,4.2522,4.253,4.2381,4.2352,4.2527,4.2527,4.2527,4.2527,4.2527,4.2527,4.1625,4.174,4.1757,4.1896,4.1935,4.2033,4.2073,4.2127,4.2175,4.2295,4.2367,4.2396,4.2451,4.2541,4.2621,4.2632,4.2664,4.2692,4.27,4.256,4.2541,4.2524,4.2496,4.2699,4.2699,4.2843,4.2844,4.2845]},{"header":{"parameterUnit":"m.s-1","parameterCategory":1,"la1":30.2991,"la2":30.254,"lo1":-89.0895,"lo2":-89.0444,"dy":0.0017,"dx":0.0017,"nx":28,"ny":28,"refTime":"2025-05-19T21:00:00:Z","depth":0,"parameterNumber":3,"parameterNumberName":"V-component_of_WINDS"},"data":[0,0,0,0,0,0,0,0,0,0,0,0,0,0,0,0,0,0,0,0,0,0,0,0,0,0,0,0,0,0,0,0,0,0,0,0,0,0,0,0,0,0,0,0,0,0,0,0,0,0,0,0,0,0,0,0,0,0,1.677,1.6771,0,1.6801,1.6801,1.6802,1.6775,1.6774,1.6773,1.6772,1.6804,1.6806,1.6808,0,0,0,0,0,0,0,0,0,0,0,0,0,1.6688,1.6689,1.677,1.6771,1.6771,1.6801,1.6801,1.6802,1.6775,1.6774,1.6773,1.6771,1.6803,1.6806,1.6808,0,0,0,0,0,0,0,0,0,0,0,0,0,1.6721,1.669,1.677,1.6761,1.6761,1.6801,1.6801,1.6802,1.6775,1.6774,1.6772,1.6771,1.6803,1.6805,1.6808,1.6859,0,0,1.6817,1.6818,0,0,0,0,0,0,0,0,1.672,1.6725,1.6762,1.6762,1.6761,1.6782,1.6784,1.6821,1.6776,1.677,1.6772,1.677,1.6798,1.6801,1.6811,1.686,1.6862,1.6817,1.6819,1.682,1.6821,0,0,0,0,0,0,0,1.6717,1.6723,1.6782,1.6763,1.6762,1.6755,1.6758,1.6791,1.6793,1.677,1.6768,1.6772,1.6798,1.6808,1.6811,1.6862,1.6817,1.682,1.6821,1.6822,1.6953,1.6955,0,0,0,0,0,0,1.6716,1.6721,1.6781,1.6783,1.6736,1.6758,1.6762,1.6777,1.6793,1.6793,1.6774,1.6771,1.6804,1.6808,1.6812,1.6872,1.682,1.6823,1.6824,1.6951,1.6953,1.6955,0,0,0,0,0,0,1.6714,1.6721,1.678,1.6752,1.6759,1.6762,1.6779,1.6779,1.6789,1.6795,1.6795,1.6784,1.6803,1.6808,1.6847,1.6873,1.6824,1.6827,1.6949,1.6952,1.6954,1.6991,0,0,0,0,0,0,1.6712,1.6721,1.6741,1.6752,1.676,1.6815,1.6781,1.6781,1.6794,1.6791,1.6805,1.6806,1.6802,1.6843,1.685,1.6876,1.6829,1.6947,1.695,1.6953,1.6988,1.6995,1.7001,0,0,0,0,0,1.6709,1.6751,1.6742,1.6749,1.6785,1.6816,1.6821,1.6816,1.6796,1.6816,1.6819,1.6805,1.6868,1.6847,1.6855,1.6882,1.6945,1.6949,1.6953,1.6985,1.6994,1.7001,0,0,0,0,0,0,1.6743,1.6752,1.6743,1.6789,1.6802,1.6812,1.6836,1.6825,1.6844,1.684,1.6833,1.6837,1.6877,1.6883,1.6859,1.693,1.6904,1.6909,1.6925,1.6934,1.694,1.6938,1.6831,0,0,0,0,0,1.6755,1.678,1.6787,1.6827,1.6834,1.6834,1.6848,1.6842,1.6855,1.6861,1.6867,1.6881,1.6903,1.6919,1.694,1.6988,1.699,1.701,1.7017,1.7022,1.7027,1.7052,1.7061,1.6968,1.6968,1.6968,0,0,1.6782,1.679,1.6806,1.6834,1.6843,1.6869,1.6839,1.6868,1.6886,1.6865,1.6902,1.6907,1.6921,1.6965,1.6984,1.6971,1.7053,1.7027,1.7031,1.7034,1.7057,1.7066,1.7074,1.6971,1.6971,1.697,0,0,1.6844,1.6853,1.6886,1.6896,1.691,1.691,1.6918,1.6929,1.6931,1.6967,1.6952,1.6974,1.7013,1.7024,1.7034,1.7097,1.7085,1.7104,1.7139,1.7163,1.717,1.7177,1.7199,1.7207,1.7109,1.7109,1.711,0,1.6875,1.6913,1.6905,1.6935,1.6947,1.6928,1.6962,1.6971,1.6992,1.7001,1.6985,1.7033,1.7042,1.7087,1.7102,1.7111,1.712,1.7103,1.717,1.7176,1.7182,1.7203,1.7211,1.7112,1.7111,1.7111,1.7111,0,1.6951,1.6977,1.7002,1.7022,1.7037,1.7068,1.7065,1.7081,1.7073,1.7074,1.7111,1.712,1.7142,1.7152,1.7146,1.7196,1.7187,1.7171,1.7144,1.7193,1.7213,1.7221,1.7115,1.7114,1.7113,1.7113,0,0,1.7036,1.7049,1.7059,1.7067,1.708,1.71,1.713,1.7151,1.7164,1.7178,1.7203,1.7236,1.722,1.7232,1.7227,1.7248,1.7296,1.7229,1.7229,1.7241,1.7351,1.7363,1.7372,1.7287,1.7289,1.729,1.7349,0,1.7098,1.715,1.7143,1.7193,1.7216,1.7197,1.7223,1.7234,1.7235,1.7255,1.7255,1.7279,1.7257,1.7264,1.7284,1.7286,1.7318,1.7281,1.731,1.7311,1.7307,1.7382,1.7396,1.7451,1.7357,1.7358,1.7359,0,1.7178,1.7194,1.7246,1.7254,1.7263,1.7287,1.7304,1.7323,1.7334,1.7334,1.7346,1.7336,1.7365,1.7336,1.7376,1.7351,1.7362,1.7365,1.7367,1.737,1.7338,1.7387,1.7469,1.7477,1.7371,1.737,1.7369,0,1.7235,1.7269,1.7304,1.7311,1.7322,1.7338,1.7343,1.7353,1.7365,1.738,1.7388,1.7407,1.7417,1.7432,1.7427,1.7407,1.7467,1.7439,1.7467,1.7467,1.7481,1.748,1.7566,1.7488,1.7488,1.7488,1.7487,0,1.7305,1.7337,1.7329,1.7351,1.7386,1.7377,1.7412,1.7415,1.7423,1.7444,1.7429,1.745,1.7441,1.7461,1.7457,1.749,1.7495,1.7495,1.7493,1.7496,1.7496,1.7504,1.75,1.749,1.7489,1.7489,1.7488,0,1.7375,1.7371,1.7408,1.7413,1.7416,1.7441,1.7446,1.7466,1.7465,1.7492,1.7498,1.7496,1.7518,1.7514,1.7539,1.7536,1.7577,1.7571,1.7574,1.7572,1.7601,1.7598,1.7694,1.7706,1.762,1.7621,1.7622,0,1.742,1.7444,1.7452,1.7465,1.7471,1.7492,1.7504,1.7495,1.7509,1.7522,1.754,1.756,1.7577,1.7613,1.7614,1.7632,1.7626,1.7658,1.7629,1.7631,1.7626,1.7625,1.7627,1.7665,1.7666,1.7666,1.7667,0,1.75,1.7496,1.7514,1.7531,1.7546,1.7559,1.7571,1.7582,1.7574,1.759,1.7612,1.7624,1.7648,1.7669,1.7685,1.769,1.7677,1.7676,1.7684,1.7687,1.7687,1.7687,1.759,1.7674,1.7674,1.7673,1.7673,1.7672,1.7559,1.7579,1.7587,1.7607,1.7615,1.7625,1.7644,1.7644,1.7662,1.7681,1.7675,1.77,1.7708,1.7729,1.7736,1.7755,1.7743,1.7754,1.7756,1.7759,1.7762,1.7684,1.7758,1.7757,1.7757,1.7757,1.7757,0,1.7638,1.7642,1.766,1.7676,1.7692,1.7677,1.7689,1.7703,1.7725,1.7734,1.7749,1.7774,1.7793,1.7794,1.7812,1.7827,1.7821,1.7832,1.7831,1.7832,1.7773,1.7764,1.7836,1.7836,1.7836,1.7836,1.7836,1.7836,1.7681,1.7714,1.7711,1.7747,1.775,1.7774,1.7782,1.7791,1.7798,1.7826,1.7842,1.7842,1.7848,1.7866,1.7882,1.7882,1.7889,1.7902,1.79,1.7844,1.7837,1.7829,1.7821,1.7904,1.7904,1.7958,1.7958,1.7959]}]]